Torreon, Mexico

7:03 AM CST on February 22, 2017 (GMT -0600)
ME8718 | | Change Station

Elev 3640 ft 25.59 °N, 103.40 °W | Updated 55 minutes ago

Partly Cloudy
Partly Cloudy
50.0 °F
Feels Like 50.0 °F
N
0.0
Wind Variable Wind from NNE

Today
High -- | Low -- °F
--% Chance of Precip.
Yesterday
High -- | Low -- °F
Precip. -- in
Pressure 30.19 in
Visibility 8.0 miles
Clouds Few 10000 ft
Dew Point 29 °F
Humidity 44%
Rainfall in
Snow Depth Not available.
7:22 AM 6:51 PM
Waning Crescent, 17% visible
METAR MMTC 221251Z 00000KT 8SM FEW100 10/M04 A3019 RMK 8/070
Pressure 30.19 in
Visibility 8.0 miles
Clouds Few 10000 ft
Dew Point 29 °F
Humidity 44%
Rainfall in
Snow Depth Not available.
7:22 AM 6:51 PM
Waning Crescent, 17% visible
METAR MMTC 221251Z 00000KT 8SM FEW100 10/M04 A3019 RMK 8/070

Get Your Daily Forecast Email!

Thanks for signing up!

Be on the lookout for a verification email in your inbox.

You'll start receiving the daily forecast at 8 AM.

×

10-Day Weather Forecast

No radar image for this location.
×

Almanac

Astronomy

Feb. 22, 2017 Rise Set
Actual Time
Civil Twilight
Nautical Twilight
Astronomical Twilight
Moon
Length of Visible Light
Length of Day
Tomorrow will be .
, % of the Moon is Illuminated

Today's Extremes

Country Highs Country Lows

Community

WunderPhotos

Upload Photos

1,962,540 photos uploaded!

WunderBlog® & News

Nearby

Air Quality

  Air Quality AQ Index Pollutant
Not available.

Snow Depth

Station Depth Elevation

Earthquake Activity

City Distance Mag. Time & Date
Minimum magnitude displayed is 2.5.

Coastal Water Temperatures

Place Temperature

Stations

Nearby Weather Stations

Station Location Temp. Windchill Dew Point Humidity Wind Precip. Elev Updated Type